GW0409 Weather Reports


Display with metric or nautical units.
time (UTC)temp
F
wind
direction
speed
MPH
gust
MPH
rain 1hr
in
rain 24hr
in
rain mn
in
humidity
%
barometer
mb
20260503040039 63 303 0.0 3.0 0.00 0.00 0.00 40 1015.5
20260503035019 64 194 0.0 3.0 0.00 0.00 0.00 39 1015.4
20260503034038 64 216 1.0 4.0 0.00 0.00 0.00 38 1015.4
20260503033038 65 152 1.0 3.0 0.00 0.00 0.00 36 1015.3
20260503032038 66 261 1.0 4.0 0.00 0.00 0.00 35 1015.3
20260503031018 66 291 0.0 4.0 0.00 0.00 0.00 34 1015.2
20260503030018 67 221 1.0 4.0 0.00 0.00 0.00 33 1015.2
20260503025039 68 288 1.0 5.0 0.00 0.00 0.00 32 1015.2
20260503024019 68 257 2.0 5.0 0.00 0.00 0.00 32 1015.1
20260503023039 69 317 1.0 4.0 0.00 0.00 0.00 31 1015.2
20260503022019 70 246 1.0 5.0 0.00 0.00 0.00 30 1015.2
20260503021016 70 226 1.0 5.0 0.00 0.00 0.00 30 1015.3
20260503020039 70 261 1.0 5.0 0.00 0.00 0.00 30 1015.3
20260503015019 71 262 2.0 6.0 0.00 0.00 0.00 29 1015.4
20260503014020 71 321 2.0 6.0 0.00 0.00 0.00 29 1015.3
20260503013017 71 246 3.0 9.0 0.00 0.00 0.00 29 1015.4
20260503012018 71 269 3.0 6.0 0.00 0.00 0.00 28 1015.4
20260503011018 70 257 4.0 9.0 0.00 0.00 0.00 28 1015.5
20260503010041 70 240 3.0 8.0 0.00 0.00 0.00 28 1015.5
20260503005018 70 252 4.0 8.0 0.00 0.00 0.00 27 1015.6
20260503004018 70 284 3.0 7.0 0.00 0.00 0.00 26 1015.7
20260503003039 69 263 4.0 11.0 0.00 0.00 0.00 25 1015.8
20260503002019 68 272 2.0 9.0 0.00 0.00 0.00 26 1016.0
20260503001019 69 235 3.0 8.0 0.00 0.00 0.00 26 1016.0
20260503000019 70 352 2.0 4.0 0.00 0.00 0.00 26 1016.2
20260502235019 69 67 2.0 6.0 0.00 0.00 0.00 27 1016.3
20260502234021 68 255 2.0 6.0 0.00 0.00 0.00 28 1016.4
20260502233021 69 292 2.0 6.0 0.00 0.00 0.00 27 1016.4
20260502232020 69 242 3.0 8.0 0.00 0.00 0.00 26 1016.5
20260502231017 69 286 3.0 7.0 0.00 0.00 0.00 27 1016.6
20260502230022 69 250 3.0 7.0 0.00 0.00 0.00 27 1016.7
20260502225040 69 253 5.0 11.0 0.00 0.00 0.00 27 1016.7
20260502224021 67 274 2.0 6.0 0.00 0.00 0.00 27 1017.0
20260502222038 68 230 3.0 7.0 0.00 0.00 0.00 26 1017.1
20260502221100 68 246 4.0 9.0 0.00 0.00 0.00 25 1017.1
20260502220021 69 323 3.0 8.0 0.00 0.00 0.00 25 1017.2
20260502215040 69 252 5.0 9.0 0.00 0.00 0.00 26 1017.3
20260502214018 68 263 3.0 7.0 0.00 0.00 0.00 28 1017.4
20260502213019 67 293 3.0 9.0 0.00 0.00 0.00 30 1017.6
20260502212018 67 262 3.0 8.0 0.00 0.00 0.00 30 1017.8
20260502211018 66 279 4.0 10.0 0.00 0.00 0.00 31 1017.9
20260502210039 67 276 5.0 10.0 0.00 0.00 0.00 30 1017.9
20260502205019 66 264 4.0 15.0 0.00 0.00 0.00 31 1018.1
20260502204019 66 287 4.0 9.0 0.00 0.00 0.00 32 1018.3
20260502203019 65 267 4.0 8.0 0.00 0.00 0.00 33 1018.4
20260502202017 65 243 4.0 8.0 0.00 0.00 0.00 36 1018.5
20260502201018 65 273 4.0 10.0 0.00 0.00 0.00 37 1018.7
20260502200042 64 251 2.0 4.0 0.00 0.00 0.00 40 1018.7
20260502195021 64 257 4.0 9.0 0.00 0.00 0.00 40 1018.9
20260502194017 64 326 3.0 7.0 0.00 0.00 0.00 41 1019.0
20260502193019 63 255 3.0 7.0 0.00 0.00 0.00 42 1019.2
20260502192017 62 216 2.0 5.0 0.00 0.00 0.00 45 1019.3
20260502191018 61 233 3.0 6.0 0.00 0.00 0.00 46 1019.4
20260502190021 61 244 3.0 7.0 0.00 0.00 0.00 46 1019.5
20260502185019 60 191 2.0 6.0 0.00 0.00 0.00 47 1019.7
20260502184040 60 238 3.0 6.0 0.00 0.00 0.00 48 1019.8
20260502182021 58 260 2.0 6.0 0.00 0.00 0.00 51 1020.2
20260502181039 57 277 2.0 7.0 0.00 0.00 0.00 52 1020.2
20260502164018 50 246 2.0 4.0 0.00 0.00 0.00 63 1020.7
20260502163018 50 300 2.0 3.0 0.00 0.00 0.00 65 1020.7
20260502162018 49 307 1.0 3.0 0.00 0.00 0.00 67 1020.7
20260502161018 48 280 1.0 3.0 0.00 0.00 0.00 70 1020.8
20260502152018 42 324 0.0 2.0 0.00 0.00 0.00 81 1021.1
20260502151019 42 244 0.0 1.0 0.00 0.00 0.00 82 1021.3
20260502123018 37 326 2.0 4.0 0.00 0.00 0.00 90 1020.5
20260502122040 37 344 2.0 3.0 0.00 0.00 0.00 91 1020.4
20260502121020 38 309 1.0 3.0 0.00 0.00 0.00 90 1020.4
20260502115041 38 312 1.0 3.0 0.00 0.00 0.00 87 1020.3
20260502114021 38 344 1.0 2.0 0.00 0.00 0.00 87 1020.3
20260502113021 39 346 1.0 2.0 0.00 0.00 0.00 86 1020.3
20260502112017 39 15 2.0 4.0 0.00 0.00 0.00 87 1020.2
20260502111038 39 332 2.0 3.0 0.00 0.00 0.00 86 1020.1
20260502110021 40 319 2.0 3.0 0.00 0.00 0.00 84 1020.1
20260502105020 40 316 1.0 2.0 0.00 0.00 0.00 82 1020.1
20260502104017 41 310 1.0 2.0 0.00 0.00 0.00 81 1020.0
20260502103019 42 231 0.0 1.0 0.00 0.00 0.00 79 1019.9
20260502102017 42 0.0 0.0 0.00 0.00 0.00 78 1019.9
20260502101020 42 351 0.0 3.0 0.00 0.00 0.00 77 1019.9
20260502091017 46 313 1.0 3.0 0.00 0.00 0.00 66 1019.5
20260502071018 51 340 3.0 4.0 0.00 0.00 0.00 56 1018.8
20260502070020 52 336 1.0 2.0 0.00 0.00 0.00 54 1018.8
20260502065018 53 0.0 0.0 0.00 0.00 0.00 51 1018.8
20260502064038 53 0.0 0.0 0.00 0.00 0.00 51 1018.8
20260502063019 54 192 0.0 2.0 0.00 0.00 0.00 49 1018.8
20260502062019 55 0 3.0 4.0 0.00 0.00 0.00 48 1018.7
20260502061019 55 11 0.0 2.0 0.00 0.00 0.00 48 1018.7
20260502060019 55 1 1.0 3.0 0.00 0.00 0.00 47 1018.7
20260502055019 54 358 0.0 2.0 0.00 0.00 0.00 48 1018.7
20260502054019 55 343 2.0 3.0 0.00 0.00 0.00 49 1018.6
20260502053020 55 332 2.0 3.0 0.00 0.00 0.00 46 1018.6
20260502052017 54 0.0 0.0 0.00 0.00 0.00 49 1018.6
20260502051022 55 343 2.0 3.0 0.00 0.00 0.00 48 1018.5
20260502050021 56 357 1.0 3.0 0.00 0.00 0.00 46 1018.4
20260502045020 56 0.0 0.0 0.00 0.00 0.00 45 1018.3
20260502044017 55 353 0.0 2.0 0.00 0.00 0.00 47 1018.3
20260502043017 56 356 1.0 3.0 0.00 0.00 0.00 47 1018.2
20260502042017 57 1 0.0 2.0 0.00 0.00 0.00 43 1018.1
20260502041021 57 0.0 0.0 0.00 0.00 0.00 44 1018.1